Weather Service Report


253 
ASUS46 KSEW 071710
RWRWA 

WASHINGTON REGIONAL WEATHER ROUNDUP
NATIONAL WEATHER SERVICE SEATTLE WA
900 AM PST SUN FEB 07 2016

NOTE:"FAIR" INDICATES FEW OR NO CLOUDS BELOW 12,000 FEET WITH NO 
SIGNIFICANT WEATHER AND/OR OBSTRUCTIONS TO VISIBILITY.

WAZ505-507>509-071800-
SEATTLE, TACOMA, EVERETT, AND VICINITY
  
CITY           SKY/WX    TMP DP  RH WIND       PRES   REMARKS
EVERETT        CLOUDY    40  31  70 E8        30.53S                  
BOEING FIELD   CLOUDY    40  38  93 CALM      30.55S                  
RENTON         PTSUNNY   40  36  86 S3        30.54F                  
SEATAC AIRPORT CLOUDY    40  34  79 SE6       30.54S                  
JBLM-MCCHORD   CLOUDY    35  35 100 CALM      30.53F                  
PUYALLUP       CLOUDY    36  36 100 E5        30.52F                  
BREMERTON      CLOUDY    39  39 100 CALM      30.58R                  
JBLM-FT LEWIS  PTSUNNY   35  35 100 E3        30.52F                  
TACOMA NARROWS PTSUNNY   39  37  92 CALM      30.54S                  
$$
 
WAZ001-503-506-510-514-515-071800-
NORTH INTERIOR
  
CITY           SKY/WX    TMP DP  RH WIND       PRES   REMARKS
BELLINGHAM     CLOUDY    38  36  92 CALM      30.55F                  
FRIDAY HARBOR  LGT RAIN  42  39  89 CALM      30.57R                  
EASTSOUND      LGT RAIN  43  39  87 CALM      30.56R                  
PORT ANGELES   CLOUDY    43  38  82 CALM      30.55R                  
EDIZ HOOK      CLOUDY    42  39  88 CALM      30.56R                  
PORT TOWNSEND  CLOUDY    39  39 100 CALM      30.57R                  
NAS WHIDBEY    CLOUDY    41  38  89 E7        30.60R                  
ARLINGTON      CLOUDY    36  30  80 CALM      30.57F                  
BURLINGTON     CLOUDY    41  36  81 NE8       30.56F                  
$$
 
WAZ020-022-039-040-504-511-512-071800-
SOUTHWEST INTERIOR
  
CITY           SKY/WX    TMP DP  RH WIND       PRES   REMARKS
SHELTON        PTSUNNY   38  37  97 NE3       30.52R                  
OLYMPIA        CLOUDY    39  38  96 SE3       30.53F                  
CHEHALIS       CLOUDY    41  41 100 CALM      30.54S                  
KELSO          CLOUDY    43  37  81 CALM      30.56R                  
VANCOUVER      MOSUNNY   46  41  82 CALM      30.53S                  
SCAPPOOSE, OR  CLOUDY    45  42  89 CALM      30.52S                  
PORTLAND, OR   MOSUNNY   48  41  76 CALM      30.53S                  
$$
 
WAZ021-516-517-071800-
WASHINGTON COAST
  
CITY           SKY/WX    TMP DP  RH WIND       PRES   REMARKS
FORKS          CLOUDY    44  38  79 E3        30.50R                  
HOQUIAM        CLOUDY    44  39  82 NE7       30.50R                  
ASTORIA, OR    MOSUNNY   47  42  83 E6        30.48R                  
$$
 
WAZ019-023-024-040-518-519-071800-
CASCADE MOUNTAINS AND COLUMBIA GORGE
  
CITY           SKY/WX    TMP DP  RH WIND       PRES   REMARKS
STAMPEDE PASS  NOT AVBL                                               
TROUTDALE, OR  SUNNY     47  36  65 E17G25    30.52F                  
THE DALLES, OR SUNNY     40  33  76 S3        30.63R                  
$$

WAZ026-027-041>044-520-521-071800-
EAST SLOPES
  
CITY           SKY/WX    TMP DP  RH WIND       PRES   REMARKS
OMAK           SUNNY     24  21  88 CALM      30.64R                  
WENATCHEE      PTSUNNY   31  26  82 W5        30.63R                  
ELLENSBURG     PTSUNNY   26  21  81 SW3       30.61R                  
YAKIMA         SUNNY     37  25  61 W7        30.63R                  
$$

WAZ028-034-035-071800-
COLUMBIA BASIN
  
CITY           SKY/WX    TMP DP  RH WIND       PRES   REMARKS
EPHRATA        SUNNY     36  29  75 N6        30.62R                  
MOSES LAKE     MOSUNNY   33  30  88 N7        30.63R                  
PASCO          SUNNY     32  29  88 CALM      30.66R                  
HERMISTON, OR  SUNNY     36  31  82 CALM      30.61R                  
$$

WAZ036>038-071800-
NORTHEAST WASHINGTON
  
CITY           SKY/WX    TMP DP  RH WIND       PRES   REMARKS
SPOKANE GEIGER FOG       27  26  96 NE3       30.58R VSB 1/4          
SPOKANE FELTS  FOG       28  26  92 NE3       30.61R VSB 1/4          
FAIRCHILD AFB  SUNNY     29  29 100 E6        30.57S FOG              
COEURDALENE,ID CLOUDY    30  27  86 E5        30.58R VSB 3/4          
DEER PARK      SUNNY     24  24 100 CALM      30.60R                  
$$

WAZ029>033-071800-
SOUTHEAST WASHINGTON
  
CITY           SKY/WX    TMP DP  RH WIND       PRES   REMARKS
PULLMAN        SUNNY     36  29  75 E6        30.59R                  
LEWISTON, ID   SUNNY     33  28  81 CALM      30.63R                  
WALLA WALLA    SUNNY     38  32  79 CALM      30.59S                  
PENDLETON, OR  SUNNY     36  31  82 CALM      30.57R                  
$$
  

Return to Home page


Western Regional Climate Center, wrcc@dri.edu